ALPHASAT

Last updated on Oct. 1, 2020, 5:42 a.m. UTC

1 39215U 13038A   20274.89632755  .00000124  00000-0  00000+0 0  9991
2 39215   2.4895  19.2758 0002437 175.0267 163.3193  1.00271035 26357
UTC
Height (km)
Latitude
Longitude
Inclination
Orbital Period
UTC large
Height (km)
Speed (km/s)
/
Latitude / Longitude
Inclination (degrees)
Orbital Period (minutes)
Azimuth
Elevation
Range (km)
Doppler Factor
iOS Compass Heading
iOS Angle

Next 30 passes for location: Hong Kong

Rise time Rise Azimuth (degrees) Set time Set Azimuth (degrees) Duration Max altitude (degrees)

No matching passes for this satellites